Weather History for Indianapolis, IN

Change the Weather History Date:

Monday, April 1, 2013

  Actual Average Record
Temperature  
Mean Temperature 38 °F 48 °F  
Max Temperature 46 °F 58 °F 82 °F (2010)
Min Temperature 29 °F 38 °F 20 °F (1923)
Degree Days  
Heating Degree Days 27 17  
Month to date heating degree days 27 17  
Since 1 July heating degree days 4944 4867  
Cooling Degree Days 0 0  
Month to date cooling degree days 0 0  
Year to date cooling degree days 0 2  
Moisture  
Dew Point 22 °F    
Average Humidity 52    
Maximum Humidity 70    
Minimum Humidity 33    
Precipitation  
Precipitation 0.00 in 0.13 in 2.85 in (1904)
Month to date precipitation 0.00 0.13  
Year to date precipitation 9.74 8.67  
Snow  
Snow 0.00 in 0.00 in 2.00 in (1924)
Month to date snowfall 0.0 0.0  
Since 1 July snowfall 34.5 25.7  
Snow Depth 0.00 in    
Sea Level Pressure  
Sea Level Pressure 30.04 in    
Wind  
Wind Speed 13 mph (NW)    
Max Wind Speed 24 mph    
Max Gust Speed 32 mph    
Visibility 10 miles    
Events      
T = Trace of Precipitation, MM = Missing Value Source: NWS Daily Summary

Daily Weather History Graph

Daily Weather History Graph

Search for Another Location

Airport:

Trip Planner

Search our weather history database for the weather conditions in past years. The results will help you decide how hot, cold, wet, or windy it might be!

Date:

Astronomy

Apr. 01, 2013 Rise Set
Actual Time 7:28 AM EDT 8:09 PM EDT
Civil Twilight 7:01 AM EDT 8:36 PM EDT
Nautical Twilight 6:29 AM EDT 9:09 PM EDT
Astronomical Twilight 5:56 AM EDT 9:42 PM EDT
Moon 1:16 AM EDT (4/1) 11:15 AM EDT (4/1)
Length of Visible Light 13h 35m
Length of Day
12h 40m
Waning Gibbous, 67% of the Moon is Illuminated
Apr 1
Waning Gibbous
Apr 3
Last Quarter
Apr 10
New
Apr 18
First Quarter
Apr 25
Full

Hourly Weather History & Observations

Time (EDT) Temp. Windchill Dew Point Humidity Pressure Visibility Wind Dir Wind Speed Gust Speed Precip Events Conditions
12:54 AM 45.0 °F 38.2 °F 35.1 °F 68% 29.86 in 10.0 mi NW 15.0 mph 23.0 mph N/A   Scattered Clouds
1:54 AM 41.0 °F 32.5 °F 32.0 °F 70% 29.88 in 10.0 mi NNW 17.3 mph - N/A   Partly Cloudy
2:54 AM 37.9 °F 30.0 °F 28.0 °F 68% 29.88 in 10.0 mi NW 12.7 mph - N/A   Scattered Clouds
3:54 AM 37.9 °F 30.0 °F 27.0 °F 65% 29.90 in 10.0 mi NW 12.7 mph 20.7 mph N/A   Mostly Cloudy
4:54 AM 37.0 °F 28.5 °F 27.0 °F 67% 29.91 in 10.0 mi NW 13.8 mph 18.4 mph N/A   Mostly Cloudy
5:54 AM 37.0 °F 29.8 °F 27.0 °F 67% 29.94 in 10.0 mi NW 10.4 mph - N/A   Overcast
6:54 AM 37.0 °F 29.3 °F 27.0 °F 67% 29.97 in 10.0 mi NW 11.5 mph - N/A   Overcast
7:54 AM 35.1 °F 27.4 °F 27.0 °F 72% 30.01 in 10.0 mi NW 10.4 mph - N/A   Mostly Cloudy
8:54 AM 36.0 °F 28.0 °F 26.1 °F 67% 30.04 in 10.0 mi NW 11.5 mph - N/A   Scattered Clouds
9:54 AM 37.9 °F 31.5 °F 26.1 °F 62% 30.05 in 10.0 mi NNW 9.2 mph - N/A   Scattered Clouds
10:54 AM 39.0 °F 31.8 °F 23.0 °F 53% 30.07 in 10.0 mi NNW 11.5 mph - N/A   Scattered Clouds
11:54 AM 42.1 °F 34.9 °F 21.9 °F 45% 30.09 in 10.0 mi WNW 13.8 mph - N/A   Mostly Cloudy
12:54 PM 43.0 °F 35.7 °F 19.9 °F 40% 30.10 in 10.0 mi NW 15.0 mph 19.6 mph N/A   Mostly Cloudy
1:54 PM 43.0 °F 35.1 °F 19.0 °F 38% 30.09 in 10.0 mi NW 17.3 mph - N/A   Mostly Cloudy
2:54 PM 43.0 °F 36.0 °F 18.0 °F 37% 30.09 in 10.0 mi WNW 13.8 mph 23.0 mph N/A   Mostly Cloudy
3:54 PM 44.6 °F 37.4 °F 19.4 °F 37% 30.08 in 10.0 mi WNW 16.1 mph 32.2 mph N/A   Mostly Cloudy
4:54 PM 44.6 °F 36.9 °F 17.6 °F 34% 30.08 in 10.0 mi West 18.4 mph 24.2 mph N/A   Scattered Clouds
5:54 PM 43.0 °F 35.4 °F 16.0 °F 34% 30.10 in 10.0 mi WNW 16.1 mph 24.2 mph N/A   Scattered Clouds
6:54 PM 44.1 °F 36.2 °F 17.1 °F 34% 30.10 in 10.0 mi WNW 18.4 mph 23.0 mph N/A   Scattered Clouds
7:54 PM 39.9 °F 32.5 °F 15.1 °F 36% 30.12 in 10.0 mi WNW 12.7 mph - N/A   Partly Cloudy
8:54 PM 37.0 °F 29.8 °F 17.1 °F 44% 30.12 in 10.0 mi WNW 10.4 mph - N/A   Partly Cloudy
9:54 PM 35.1 °F 27.4 °F 18.0 °F 50% 30.14 in 10.0 mi NW 10.4 mph - N/A   Clear
10:54 PM 34.0 °F 26.6 °F 17.1 °F 50% 30.16 in 10.0 mi NW 9.2 mph - N/A   Clear
11:54 PM 30.9 °F 23.5 °F 18.0 °F 59% 30.16 in 10.0 mi NW 8.1 mph - N/A   Clear